Date,TemperatureHighF,TemperatureAvgF,TemperatureLowF,DewpointHighF,DewpointAvgF,DewpointLowF,HumidityHigh,HumidityAvg,HumidityLow,PressureMaxIn,PressureMinIn,WindSpeedMaxMPH,WindSpeedAvgMPH,GustSpeedMaxMPH,PrecipitationSumIn
2013-1-1,51.8,41.2,33.8,34.8,31.4,28.4,86,69,49,30.30,30.20,14,3,14,0.00
2013-1-2,52.6,40.5,31.3,36.7,30.5,26.1,86,69,47,30.26,30.14,9,1,9,0.00
2013-1-3,51.7,39.7,30.2,39.3,32.0,25.3,86,74,56,30.27,30.16,8,1,8,0.00
2013-1-4,52.9,41.7,32.8,38.7,33.2,28.1,85,73,56,30.30,30.17,9,1,9,0.00
2013-1-5,49.5,42.4,35.1,42.7,37.4,30.5,92,83,73,30.26,30.08,9,2,9,0.33
2013-1-6,52.0,45.0,39.4,45.4,41.6,36.5,93,88,74,30.17,30.07,13,2,13,0.20
2013-1-7,53.3,44.2,37.1,44.5,39.4,33.7,93,83,71,30.22,30.12,8,2,8,0.00
2013-1-9,50.2,45.4,39.8,40.5,35.6,32.2,93,69,64,30.16,29.89,15,5,15,0.00
2013-1-10,50.2,41.7,33.1,36.8,31.7,27.9,84,68,48,30.12,29.99,8,2,8,0.00
2013-1-11,48.6,38.8,29.9,37.4,31.5,25.4,85,75,60,30.21,30.10,8,2,8,0.00
2013-1-12,46.8,39.6,33.7,32.3,26.8,22.9,78,61,40,30.23,30.12,12,4,12,0.00
2013-1-13,46.1,37.7,27.7,26.9,22.5,18.4,73,55,37,30.25,30.15,17,4,17,0.00
2013-1-14,49.7,40.6,34.4,25.7,21.7,18.6,64,48,31,30.40,30.21,16,6,16,0.00
2013-1-15,49.5,39.0,29.7,34.2,28.6,23.1,79,67,50,30.51,30.36,6,1,7,0.00
2013-1-16,55.3,41.2,29.5,37.5,30.8,24.1,82,68,46,30.45,30.29,6,1,6,0.00
2013-1-17,56.5,41.9,30.1,40.2,32.8,25.4,84,71,50,30.30,30.17,6,1,6,0.00
2013-1-18,59.4,45.2,36.7,38.9,32.6,27.8,84,64,33,30.27,30.15,12,3,12,0.00
2013-1-19,61.2,43.3,31.7,39.7,29.8,25.3,88,62,28,30.30,30.17,10,2,11,0.00
2013-1-20,37.1,36.7,36.4,27.2,27.1,26.8,69,68,67,30.23,30.22,2,1,2,0.00
2013-1-21,59.8,51.0,39.6,40.5,35.7,31.3,77,57,44,30.20,30.12,8,2,8,0.00
2013-1-22,59.8,47.1,35.6,39.2,34.9,30.1,80,64,42,30.16,30.03,7,2,7,0.00
2013-1-23,54.4,48.3,45.0,46.7,41.5,36.2,93,78,62,30.12,29.99,13,3,13,0.15
2013-1-24,58.0,52.8,47.3,53.1,48.7,45.2,93,86,80,30.20,30.07,14,4,14,0.01
2013-1-25,65.2,56.6,49.1,55.9,51.1,46.6,93,82,68,30.19,30.02,6,1,6,0.00
2013-1-26,63.2,53.1,45.0,52.2,43.5,36.1,93,72,41,30.02,29.91,17,3,17,0.13
2013-1-27,54.7,45.9,36.5,41.3,35.3,32.2,88,68,43,30.15,30.01,14,3,14,0.00
2013-1-28,58.1,47.1,36.0,39.3,34.9,30.6,82,64,45,30.23,30.13,12,3,12,0.00
2013-1-29,60.1,52.0,39.2,41.4,38.8,33.9,83,62,42,30.35,30.22,14,4,14,0.00
2013-1-30,61.9,52.2,43.6,45.9,40.8,36.2,79,66,47,30.35,30.25,11,2,11,0.00
2013-1-31,62.5,49.6,37.8,49.2,40.7,33.6,89,73,49,30.32,30.19,8,1,8,0.00
2013-2-1,63.7,51.2,41.2,45.2,40.4,35.9,83,68,41,30.24,30.13,13,2,13,0.00
2013-2-2,64.1,51.6,43.9,44.7,40.8,37.2,83,68,46,30.30,30.19,10,2,10,0.00
2013-2-3,63.0,49.5,39.1,47.4,40.2,34.1,88,72,46,30.24,30.10,9,2,9,0.00
2013-2-4,61.4,49.2,39.4,50.0,43.0,35.6,91,80,62,30.17,30.04,5,1,5,0.00
2013-2-5,55.8,47.5,38.9,48.6,42.3,35.7,91,82,72,30.12,30.02,9,2,9,0.00
2013-2-6,60.1,48.7,39.2,45.6,41.0,36.5,93,76,51,30.18,30.08,10,3,10,0.00
2013-2-7,59.9,47.4,39.4,48.0,38.2,33.8,88,72,40,30.13,29.97,12,4,16,0.00
2013-2-8,56.9,47.0,38.9,40.8,33.7,27.6,89,63,34,30.00,29.91,21,6,21,0.00
2013-2-9,58.7,48.3,40.0,30.8,28.2,24.3,63,47,28,30.08,29.96,16,6,16,0.00
2013-2-10,61.9,47.7,34.4,38.7,32.4,27.8,84,58,34,30.13,29.99,18,4,18,0.00
2013-2-11,64.1,51.7,43.0,33.8,30.0,25.8,60,45,24,30.22,30.06,13,4,13,0.00
2013-2-12,61.6,48.8,36.9,41.8,35.6,30.0,81,62,41,30.38,30.22,7,2,7,0.00
2013-2-13,63.9,50.2,37.4,43.5,37.1,31.6,85,63,37,30.33,30.19,9,2,9,0.00
2013-2-14,70.9,56.8,41.2,44.4,40.4,35.1,85,57,37,30.25,30.14,17,5,17,0.00
2013-2-15,69.3,55.1,41.6,43.2,39.0,34.2,77,56,35,30.29,30.21,7,1,7,0.00
2013-2-16,46.1,45.9,45.7,36.1,35.9,35.7,68,68,68,30.24,30.23,1,0,1,0.00
2013-2-17,65.7,55.9,41.9,40.5,32.4,28.1,79,43,26,30.04,29.93,17,4,17,0.00
2013-2-18,59.8,47.6,37.3,45.7,36.9,28.2,81,67,54,29.99,29.87,17,4,17,0.00
2013-2-19,51.3,44.2,38.0,43.9,37.2,32.2,89,77,50,29.90,29.70,16,4,16,0.16
2013-2-20,60.1,47.6,36.0,36.6,31.2,27.9,82,56,31,30.01,29.81,23,6,23,0.00
2013-2-21,61.2,48.3,37.4,39.2,31.1,26.0,80,54,27,30.16,30.00,18,4,18,0.00
2013-2-22,63.2,50.8,38.0,42.2,35.8,28.2,75,57,39,30.24,30.10,13,3,13,0.00
2013-2-23,59.6,51.8,45.7,41.5,30.7,21.6,77,48,25,30.24,30.09,21,7,21,0.00
2013-2-24,63.7,52.6,43.9,28.5,25.8,20.1,50,37,19,30.24,30.13,22,9,22,0.00
2013-2-26,67.1,58.6,47.7,29.2,26.9,23.7,42,30,22,30.22,30.11,28,9,28,0.00
2013-2-27,66.6,52.8,37.1,38.5,32.2,24.1,64,47,32,30.34,30.17,6,1,6,0.00
2013-2-28,71.3,58.5,45.4,47.4,40.8,37.1,78,54,33,30.43,30.33,9,2,9,0.00
2013-3-1,73.3,59.3,47.0,48.6,43.3,38.4,76,57,35,30.41,30.22,12,2,12,0.00
2013-3-2,71.3,59.5,47.9,51.8,47.2,40.5,81,65,48,30.24,30.04,8,2,8,0.00
2013-3-3,67.3,59.5,50.2,52.7,49.1,42.8,81,69,55,30.04,29.98,13,3,13,0.00
2013-3-4,67.9,54.1,43.2,52.2,45.0,38.7,88,72,56,30.12,29.99,11,2,11,0.00
2013-3-5,63.4,52.3,41.2,44.1,39.8,33.6,82,63,45,30.00,29.80,18,6,18,0.04
2013-3-6,60.8,52.2,43.0,45.7,41.1,34.8,85,67,49,30.04,29.80,17,6,19,0.06
2013-3-7,59.6,49.0,39.2,42.5,37.1,33.3,85,65,45,29.99,29.85,11,3,11,0.00
2013-3-8,68.4,53.9,42.7,41.5,34.6,26.4,79,52,21,30.01,29.79,17,5,17,0.00
2013-3-9,70.2,55.8,40.9,44.1,35.1,23.5,87,53,18,30.25,30.00,23,5,23,0.00
2013-3-10,68.8,59.9,42.5,46.0,37.4,31.0,70,45,26,30.36,30.23,11,3,11,0.00
2013-3-11,74.5,58.4,44.1,48.2,42.1,36.3,78,57,33,30.25,30.07,10,2,10,0.00
2013-3-12,76.3,60.9,45.9,52.1,46.2,40.0,85,61,39,30.16,30.04,7,2,7,0.00
2013-3-13,77.9,63.7,49.9,53.8,49.0,44.6,84,61,35,30.17,30.04,10,2,10,0.00
2013-3-14,78.8,64.7,51.5,56.3,51.0,45.0,83,63,43,30.13,30.04,7,2,7,0.00
2013-3-15,78.8,63.8,52.4,50.8,47.0,43.0,82,58,29,30.09,29.98,12,2,12,0.00
2013-3-16,78.8,64.1,49.7,49.8,42.7,35.7,74,49,23,30.06,29.94,14,3,14,0.00
2013-3-17,73.1,60.5,45.2,40.8,34.6,27.8,68,41,21,30.12,29.99,14,3,14,0.00
2013-3-18,73.1,59.1,44.6,44.6,39.7,34.0,77,51,29,30.09,29.99,7,2,9,0.00
2013-3-19,71.3,59.3,48.1,50.6,46.0,40.6,85,63,43,30.10,30.02,11,2,11,0.08
2013-3-20,64.8,56.1,49.9,56.7,50.9,45.0,92,83,72,30.10,30.03,13,4,13,0.20
2013-3-21,67.5,55.7,45.2,46.8,35.5,18.2,90,53,16,30.11,29.98,19,6,19,0.01
2013-3-22,65.5,56.6,47.0,31.1,24.0,16.3,42,30,16,30.11,30.00,26,11,26,0.00
2013-3-23,70.9,58.3,47.9,33.5,25.6,20.7,48,30,16,30.13,30.00,22,7,22,0.00
2013-3-24,74.5,59.6,42.8,43.7,38.4,33.6,74,48,25,30.08,29.91,8,2,8,0.00
2013-3-25,72.4,56.8,44.5,51.3,42.7,37.8,81,62,35,29.97,29.86,14,3,14,0.00
2013-3-26,73.3,58.2,44.8,49.6,43.6,38.9,83,60,39,29.97,29.88,12,3,12,0.00
2013-3-27,74.0,60.2,49.1,54.2,47.2,40.8,79,63,45,29.98,29.89,16,4,16,0.00
2013-3-28,71.3,60.6,50.9,54.9,49.9,44.6,84,69,49,30.08,29.98,9,3,9,0.00
2013-3-29,79.2,64.4,52.0,52.7,49.0,46.7,84,61,35,30.09,29.98,15,4,15,0.00
2013-3-30,79.4,64.9,55.3,53.7,49.0,45.7,77,58,37,30.02,29.94,12,3,12,0.15
2013-3-31,70.9,60.7,54.2,58.1,53.1,49.8,89,77,51,30.07,29.97,21,4,21,1.10
2013-4-1,69.7,60.7,52.2,57.1,52.6,49.3,91,76,54,30.14,30.04,6,2,6,0.01
2013-4-2,74.2,61.9,50.2,56.9,52.0,46.1,89,71,49,30.15,30.03,8,2,8,0.00
2013-4-3,76.5,63.2,49.9,58.5,51.4,45.6,87,67,46,30.11,29.94,6,2,6,0.00
2013-4-4,66.8,58.8,52.9,58.8,52.7,47.7,92,80,69,30.08,29.93,11,5,11,0.65
2013-4-5,71.6,60.4,49.7,56.0,50.7,46.4,90,72,46,30.13,30.07,10,3,10,0.00
2013-4-6,72.0,61.9,53.8,56.9,51.8,48.1,83,70,55,30.16,30.05,8,3,8,0.00
2013-4-7,72.5,61.8,51.7,57.4,50.1,46.1,84,67,50,30.10,29.86,10,4,10,0.00
2013-4-8,68.8,63.9,55.3,34.2,30.6,26.8,45,30,21,29.99,29.89,26,10,26,0.00
2013-4-9,75.4,63.2,50.2,38.7,34.8,32.1,52,36,21,30.09,29.99,19,9,19,0.00
2013-4-10,87.1,72.5,59.2,56.8,46.2,38.1,51,40,26,30.16,29.93,14,5,14,0.00
2013-4-11,81.0,68.5,58.0,48.6,37.6,27.5,57,35,17,29.97,29.78,20,6,20,0.00
2013-4-12,84.4,68.7,51.1,52.7,41.5,34.1,60,39,21,29.87,29.75,12,3,12,0.00
2013-4-13,78.8,64.2,50.0,53.7,47.5,42.6,80,57,33,29.86,29.73,8,2,8,0.00
2013-4-14,77.6,63.9,54.7,46.8,37.5,28.3,66,39,22,29.88,29.71,23,7,23,0.00
2013-4-15,66.2,57.2,47.3,47.6,39.7,27.8,79,53,24,29.89,29.76,18,4,18,0.01
2013-4-16,69.5,58.1,50.0,30.2,27.2,23.0,43,32,18,30.16,29.89,23,9,23,0.00
2013-4-17,73.6,59.6,48.4,34.2,28.3,22.7,53,33,16,30.26,30.15,22,8,22,0.00
2013-4-18,86.4,66.0,54.0,39.5,33.0,27.4,43,31,17,30.25,30.14,17,5,17,0.00
2013-4-19,87.5,67.8,50.0,49.2,43.7,35.6,68,44,24,30.21,30.01,8,2,8,0.00
2013-4-20,68.8,64.1,61.6,40.2,37.2,34.0,40,37,34,30.09,30.04,21,8,21,0.00
2013-4-21,94.3,80.4,60.5,43.6,39.3,30.3,50,25,13,30.02,29.88,15,4,15,0.00
2013-4-22,89.5,76.0,64.1,44.6,36.6,23.9,45,27,10,29.95,29.81,28,9,28,0.00
2013-4-23,92.2,72.5,60.8,34.9,27.0,20.9,38,20,10,29.92,29.79,25,9,28,0.00
2013-4-24,90.4,70.8,51.5,44.4,34.9,25.0,68,33,12,29.83,29.72,19,5,19,0.00
2013-4-25,87.3,65.7,49.9,53.4,46.5,40.5,78,53,24,30.03,29.80,11,3,11,0.00
2013-4-26,87.1,66.4,50.0,55.7,49.2,43.7,82,57,32,30.18,30.03,10,2,10,0.00
2013-4-27,92.9,69.9,50.8,58.4,51.5,44.3,80,55,31,30.18,29.98,9,2,9,0.00
2013-4-28,97.2,75.4,55.1,56.7,47.5,36.1,76,44,15,30.02,29.81,15,3,15,0.00
2013-4-29,92.0,80.0,68.6,51.0,45.6,39.6,51,31,18,29.86,29.71,21,6,21,0.00
2013-4-30,83.7,74.4,65.9,44.0,29.3,18.8,37,21,11,29.85,29.72,30,13,30,0.00
2013-5-1,89.1,73.9,61.0,30.8,26.3,20.9,23,18,12,30.06,29.85,28,12,28,0.00
2013-5-2,101.0,77.5,63.7,39.6,29.2,21.3,32,18,10,30.15,30.01,17,6,17,0.00
2013-5-3,99.9,77.0,57.4,48.8,42.0,28.1,62,33,11,30.02,29.71,12,3,12,0.00
2013-5-4,93.4,78.1,65.5,49.0,37.6,27.6,53,26,12,29.73,29.47,24,8,24,0.00
2013-5-5,78.7,66.0,56.0,50.6,46.4,39.5,64,50,34,29.77,29.50,13,3,13,0.00
2013-5-6,73.1,64.2,59.0,56.1,51.9,47.0,83,65,47,29.92,29.76,12,4,12,0.14
2013-5-7,79.4,66.7,56.5,58.0,53.5,50.9,83,64,43,29.98,29.91,10,2,10,0.00
2013-5-8,81.2,67.3,57.2,58.0,52.7,49.3,80,61,41,30.06,29.97,11,4,11,0.00
2013-5-9,86.6,68.7,53.1,59.9,53.3,47.3,83,60,39,30.10,29.97,13,3,13,0.00
2013-5-10,92.5,70.7,53.8,63.9,55.2,47.6,81,60,39,30.12,29.99,11,3,11,0.00
2013-5-11,94.5,75.5,56.3,64.5,57.5,49.9,81,56,36,30.08,29.96,8,2,8,0.00
2013-5-12,99.2,71.6,56.7,60.1,53.3,46.9,78,56,22,30.07,29.92,10,3,10,0.00
2013-5-13,98.3,73.6,55.3,60.6,53.7,46.9,81,53,25,30.02,29.87,9,3,9,0.00
2013-5-15,88.2,75.0,62.3,55.6,51.4,47.0,60,45,32,29.97,29.87,12,3,12,0.00
2013-5-16,82.3,69.8,59.0,54.5,49.4,45.6,69,50,30,29.94,29.84,16,4,16,0.00
2013-5-17,81.4,65.7,50.8,53.7,47.3,41.6,80,54,30,29.99,29.89,12,4,12,0.00
2013-5-18,90.0,68.7,50.6,54.4,48.1,42.5,79,51,28,30.09,29.98,9,3,9,0.00
2013-5-19,90.0,74.3,60.3,48.4,41.0,23.8,56,33,12,30.09,29.92,22,7,22,0.00
2013-5-20,97.2,78.6,66.6,47.0,40.5,28.5,45,28,12,29.98,29.83,18,6,18,0.00
2013-5-21,88.2,71.9,56.7,53.5,40.7,26.9,70,38,15,29.91,29.79,21,6,21,0.00
2013-5-22,83.0,64.2,49.7,35.8,25.3,14.0,45,26,10,29.97,29.82,21,7,21,0.00
2013-5-23,85.3,65.1,48.4,46.0,39.4,29.5,66,42,15,29.95,29.82,12,3,12,0.00
2013-5-24,85.9,68.0,50.9,50.7,42.1,32.2,66,42,16,29.96,29.84,11,3,11,0.00
2013-5-25,83.9,65.8,50.8,51.9,46.7,40.8,73,52,31,29.95,29.87,12,3,12,0.00
2013-5-26,85.0,67.8,51.8,53.6,48.4,44.4,78,53,27,30.03,29.93,14,4,14,0.00
2013-5-27,69.1,62.0,52.2,58.0,51.1,44.9,83,68,53,30.05,29.94,14,4,14,0.05
2013-5-28,87.8,70.5,58.0,59.0,54.0,49.1,87,59,30,29.94,29.83,11,3,11,0.00
2013-5-29,88.6,74.7,64.4,56.2,50.9,43.4,63,45,24,29.89,29.80,14,3,14,0.00
2013-5-30,93.6,72.3,56.2,54.8,47.6,41.5,73,45,22,29.93,29.85,14,3,14,0.00
2013-5-31,99.2,78.8,62.1,49.3,43.0,27.4,63,32,10,29.97,29.84,19,5,19,0.00
2013-6-1,98.3,82.2,65.9,54.0,47.8,39.5,52,32,16,29.86,29.68,15,3,15,0.00
2013-6-2,103.3,81.9,64.8,60.1,53.5,47.0,70,41,20,29.70,29.56,18,3,18,0.00
2013-6-3,97.6,79.3,62.1,62.9,54.5,49.1,68,45,24,29.72,29.60,11,3,11,0.00
2013-6-4,94.0,74.1,59.2,61.6,54.6,48.9,71,52,33,29.83,29.71,12,4,12,0.00
2013-6-5,92.0,72.6,56.5,62.9,55.7,49.6,79,57,38,29.93,29.78,11,3,11,0.00
2013-6-6,96.1,74.4,56.7,64.5,56.8,49.7,80,56,34,29.88,29.73,10,3,10,0.00
2013-6-7,111.8,83.1,59.4,67.2,59.1,51.8,79,49,19,29.82,29.63,13,3,13,0.00
2013-6-8,115.4,90.9,73.1,65.7,61.3,55.5,67,40,19,29.68,29.57,15,4,15,0.00
2013-6-9,93.1,79.5,65.7,62.4,56.7,51.0,61,47,32,29.77,29.61,13,4,13,0.00
2013-6-10,78.7,68.7,61.2,59.5,54.1,50.9,73,61,44,29.91,29.72,18,4,18,0.00
2013-6-11,92.2,73.1,58.0,59.1,54.3,49.5,76,54,27,29.94,29.81,9,2,9,0.00
2013-6-12,96.3,75.1,58.5,59.4,51.9,41.9,77,48,21,29.91,29.81,13,3,13,0.00
2013-6-13,94.3,72.0,57.1,55.3,46.3,40.0,69,43,18,30.04,29.88,13,4,13,0.00
2013-6-14,97.0,81.5,68.9,48.3,44.7,39.9,41,29,18,29.78,29.76,5,1,5,0.00
2013-6-15,96.8,75.3,55.3,59.2,51.4,43.3,74,46,24,29.86,29.74,13,3,13,0.00
2013-6-16,101.9,76.3,56.2,58.3,50.8,38.9,78,46,18,29.99,29.86,12,3,12,0.02
2013-6-17,97.9,76.1,57.6,56.1,50.9,45.5,69,44,22,29.99,29.88,14,4,14,0.00
2013-6-18,90.9,72.1,57.2,56.2,48.4,39.4,76,47,19,29.93,29.83,14,4,14,0.00
2013-6-19,89.8,70.8,55.1,50.0,45.6,42.0,64,42,22,30.01,29.89,10,3,10,0.00
2013-6-20,93.2,72.9,58.1,53.5,48.2,45.2,69,44,26,29.94,29.84,13,3,13,0.00
2013-6-21,95.6,76.0,57.2,56.5,45.8,27.5,78,39,12,29.92,29.82,14,3,14,0.00
2013-6-22,99.0,77.1,63.0,54.0,48.2,42.1,56,39,19,29.85,29.72,10,3,10,0.00
2013-6-23,83.7,70.0,59.6,61.5,55.9,49.4,77,62,43,29.78,29.71,14,5,14,0.00
2013-6-24,71.5,64.8,61.0,61.6,57.5,53.8,82,77,62,29.87,29.73,13,4,13,0.07
2013-6-25,78.5,68.7,61.9,66.9,62.3,57.1,90,80,66,29.95,29.85,17,4,17,0.16
2013-6-26,98.3,78.4,62.3,68.4,62.9,58.1,88,62,34,29.99,29.91,14,3,14,0.00
2013-6-27,104.6,81.7,62.1,66.7,61.3,53.6,83,53,24,30.04,29.93,8,2,8,0.00
2013-6-28,106.2,88.2,69.8,68.5,63.5,53.3,75,47,28,29.96,29.78,10,3,10,0.00
2013-6-29,113.2,85.4,72.5,66.5,61.9,53.6,76,48,20,29.86,29.70,6,2,6,0.00
2013-6-30,110.2,89.9,72.4,68.8,62.3,56.5,66,42,24,29.77,29.65,9,2,9,0.00
2013-7-1,108.4,86.4,66.2,67.6,62.0,56.2,73,47,24,29.78,29.68,9,2,9,0.00
2013-7-2,103.0,89.4,76.5,70.5,64.9,57.3,66,46,31,29.79,29.73,13,3,13,0.00
2013-7-3,110.7,86.9,70.2,72.6,64.0,56.5,67,49,27,29.82,29.65,8,2,8,0.00
2013-7-4,116.5,93.6,77.8,68.2,62.1,51.0,65,38,19,29.68,29.54,15,3,15,0.00
2013-7-5,93.8,78.7,63.7,61.2,55.4,49.3,64,46,33,29.67,29.56,12,5,12,0.00
2013-7-6,96.1,75.3,60.1,63.7,56.6,50.9,76,54,32,29.73,29.63,8,3,10,0.00
2013-7-7,65.9,60.9,58.5,53.3,51.8,50.6,78,72,62,29.73,29.67,6,2,6,0.00
2013-7-9,109.3,92.6,78.5,61.6,53.8,48.3,49,29,16,29.97,29.84,8,2,8,0.00
2013-7-10,105.8,82.1,63.7,63.7,55.0,47.6,67,43,17,29.89,29.76,13,3,13,0.00
2013-7-11,94.7,72.9,53.8,59.7,52.2,46.6,78,51,26,29.85,29.74,12,4,12,0.00
2013-7-12,93.6,73.3,55.4,61.7,55.1,48.3,79,56,29,29.87,29.76,9,3,9,0.00
2013-7-13,101.5,76.2,56.5,61.9,53.2,46.3,79,50,19,29.90,29.79,8,3,8,0.00
2013-7-14,102.4,77.4,58.5,59.3,54.3,49.2,74,48,23,29.92,29.77,8,2,8,0.00
2013-7-15,92.5,72.9,55.8,60.7,53.9,48.0,78,54,32,29.82,29.69,12,4,12,0.00
2013-7-16,87.8,70.0,52.7,58.6,52.5,45.2,79,56,34,29.92,29.74,13,4,13,0.00
2013-7-17,97.9,73.4,54.4,60.3,54.4,49.0,85,56,26,30.04,29.91,10,3,10,0.00
2013-7-18,102.1,78.1,57.2,62.4,55.8,50.4,79,50,22,29.99,29.82,8,3,8,0.00
2013-7-19,104.4,79.8,59.0,62.7,57.1,50.1,76,49,25,29.87,29.69,9,2,9,0.00
2013-7-20,103.0,79.5,59.9,65.9,58.5,51.6,75,51,27,29.77,29.59,9,3,10,0.00
2013-7-21,101.7,79.3,61.6,66.3,58.2,51.3,72,51,29,29.74,29.63,9,3,9,0.00
2013-7-22,72.5,71.1,70.4,51.8,51.0,49.7,50,49,48,29.76,29.74,8,4,8,0.00
2013-7-23,73.4,71.7,70.2,54.2,53.3,52.2,54,52,50,29.86,29.85,7,4,7,0.00
2013-7-24,103.7,82.2,64.4,63.8,58.0,51.9,70,47,26,29.91,29.78,9,2,9,0.00
2013-7-25,101.9,81.7,65.2,68.3,60.0,52.9,69,49,32,29.89,29.80,14,3,14,0.00
2013-7-26,100.8,77.4,59.4,66.8,58.4,51.4,76,54,31,29.99,29.84,11,3,11,0.00
2013-7-27,98.3,75.6,59.2,65.0,58.1,51.8,79,57,33,29.91,29.71,11,4,11,0.00
2013-7-28,93.6,73.7,59.4,65.3,57.0,50.3,77,58,34,29.78,29.65,11,4,11,0.00
2013-7-29,86.9,70.1,55.1,60.1,54.5,48.0,78,60,40,29.89,29.69,10,3,10,0.00
2013-7-30,95.4,72.4,56.7,63.0,55.2,50.0,79,58,27,30.03,29.89,9,3,9,0.00
2013-7-31,63.7,61.3,59.2,52.8,52.2,51.6,77,72,67,29.94,29.93,9,3,9,0.00
2013-8-1,94.7,81.7,66.8,58.2,54.8,51.4,60,41,29,29.97,29.84,9,3,9,0.00
2013-8-2,96.5,75.8,58.3,59.3,52.9,46.5,76,49,23,29.91,29.78,8,2,8,0.00
2013-8-3,99.4,73.9,56.5,60.4,53.6,46.9,79,53,23,29.90,29.78,8,3,8,0.00
2013-8-4,93.4,72.6,56.2,61.6,54.3,48.8,79,56,28,29.91,29.81,11,3,11,0.00
2013-8-5,92.2,71.5,54.7,59.5,52.7,48.0,80,55,24,29.95,29.81,10,3,10,0.00
2013-8-6,87.8,70.1,54.0,58.7,52.9,47.0,79,57,33,29.94,29.84,11,3,11,0.00
2013-8-7,85.0,70.3,55.4,59.1,54.5,48.3,80,59,38,30.00,29.89,13,3,13,0.00
2013-8-8,85.3,69.7,56.2,60.8,54.6,50.0,83,62,35,29.95,29.81,9,3,9,0.00
2013-8-9,67.0,64.4,62.1,53.0,52.3,51.6,70,65,59,29.87,29.85,7,4,7,0.00
2013-8-10,89.5,71.2,56.3,61.4,55.7,50.4,83,61,35,29.96,29.86,10,3,10,0.00
2013-8-11,93.2,73.9,57.8,61.4,56.5,52.0,85,58,31,29.94,29.81,8,2,8,0.00
2013-8-12,96.5,74.0,56.3,60.0,54.7,50.6,83,55,25,29.92,29.81,9,2,9,0.00
2013-8-13,100.6,77.1,57.2,58.2,52.9,48.3,81,48,20,29.93,29.78,7,1,7,0.00
2013-8-14,98.8,77.5,59.0,60.9,55.4,46.9,74,50,23,29.89,29.76,7,2,7,0.00
2013-8-15,100.3,78.8,61.6,65.1,59.7,54.7,82,56,27,29.87,29.77,9,2,9,0.00
2013-8-16,100.4,79.8,62.6,67.6,60.6,52.8,86,56,29,29.90,29.80,8,2,8,0.00
2013-8-17,78.1,67.6,63.0,61.4,56.3,53.0,77,68,52,29.90,29.83,8,2,8,0.00
2013-8-25,93.1,80.9,68.6,61.3,55.3,51.1,56,42,31,29.83,29.78,13,4,13,0.00
2013-8-26,91.6,74.1,59.2,60.2,54.1,47.3,82,53,25,29.92,29.78,8,3,8,0.00
2013-8-27,96.1,75.2,58.3,59.1,53.3,49.1,77,51,24,29.81,29.68,11,2,11,0.00
2013-8-28,98.1,76.1,59.4,61.3,56.5,49.3,81,55,25,29.83,29.73,10,3,10,0.00
2013-8-29,97.2,77.1,60.8,64.5,59.4,55.9,86,58,31,29.95,29.80,8,4,11,0.00
2013-8-30,103.7,79.5,63.2,65.2,59.1,54.0,83,54,26,29.96,29.80,7,2,7,0.00
2013-8-31,96.1,78.5,62.3,64.3,55.8,49.2,77,49,23,29.87,29.74,11,3,11,0.00
2013-9-1,92.2,75.7,62.3,59.7,54.8,48.5,75,51,24,29.84,29.73,11,3,11,0.00
2013-9-2,72.7,70.3,68.9,60.3,58.7,57.5,72,67,59,29.82,29.79,8,3,8,0.00
2013-9-3,87.7,74.4,61.6,61.5,56.0,51.4,81,56,31,29.90,29.80,12,3,12,0.00
2013-9-4,88.6,72.1,58.7,60.8,55.5,52.2,83,59,32,29.95,29.81,12,3,12,0.00
2013-9-5,88.7,73.1,58.9,60.0,54.4,50.4,82,56,28,29.91,29.81,9,3,12,0.00
2013-9-6,93.1,75.0,59.2,55.0,48.9,36.1,81,46,15,29.91,29.75,16,4,16,0.00
2013-9-7,96.8,78.3,59.4,56.1,48.0,41.8,55,37,20,29.82,29.70,10,2,10,0.00
2013-9-8,100.6,81.4,64.3,55.2,49.1,36.1,64,37,13,29.79,29.63,9,2,9,0.00
2013-9-9,101.0,83.7,67.3,57.2,51.9,48.3,54,36,19,29.71,29.55,13,2,13,0.00
2013-9-10,76.0,66.6,62.6,57.5,54.1,52.1,75,65,45,29.68,29.58,6,2,6,0.00
2013-9-12,87.5,79.3,67.7,62.8,59.7,55.5,74,52,38,29.90,29.73,11,3,11,0.00
2013-9-13,92.5,74.5,60.7,63.9,58.3,53.4,80,59,36,29.80,29.59,10,3,10,0.00
2013-9-14,89.1,72.3,58.9,62.9,56.6,51.8,79,60,39,29.71,29.58,9,3,9,0.00
2013-9-15,89.3,71.3,54.7,58.9,53.7,48.3,81,57,29,29.74,29.61,11,3,11,0.00
2013-9-16,87.1,71.4,58.5,61.9,56.3,52.0,85,62,35,29.81,29.64,8,3,8,0.00
2013-9-17,82.1,70.6,58.1,57.0,52.7,50.3,77,55,36,29.79,29.66,10,3,10,0.00
2013-9-18,86.0,73.1,63.2,51.7,43.0,34.9,58,36,17,29.84,29.71,20,6,20,0.00
2013-9-19,89.5,71.1,54.0,52.0,44.0,38.1,58,40,19,29.78,29.63,8,2,8,0.00
2013-9-20,86.2,75.9,56.5,57.3,52.1,42.2,70,46,24,29.82,29.66,14,5,14,0.00
2013-9-21,65.9,62.8,56.2,59.0,56.6,51.5,87,80,68,29.90,29.79,23,5,23,0.94
2013-9-22,73.4,63.0,52.6,57.2,53.9,49.7,91,74,52,30.01,29.90,10,2,10,0.01
2013-9-23,82.1,69.1,55.8,59.5,55.5,50.5,85,64,39,30.02,29.90,6,2,6,0.00
2013-9-24,80.3,69.3,58.9,60.5,54.0,47.4,85,61,38,29.95,29.80,18,4,18,0.00
2013-9-25,72.9,64.4,55.8,47.8,44.4,38.5,69,50,31,29.92,29.79,17,4,17,0.00
2013-9-26,75.2,64.4,54.7,41.9,38.7,35.3,55,40,24,30.07,29.82,19,9,19,0.00
2013-9-27,78.1,67.5,58.7,41.9,37.4,34.4,45,34,22,30.18,30.07,19,7,19,0.00
2013-9-28,82.4,71.8,50.9,50.2,43.8,38.0,70,39,23,30.18,30.03,10,3,10,0.00
2013-9-29,78.1,68.3,57.6,60.1,55.5,49.0,78,64,50,30.16,30.08,11,4,12,0.00
2013-9-30,79.0,69.9,63.5,63.7,59.4,54.5,85,70,53,30.13,30.00,13,4,13,0.00
2013-10-1,76.9,64.1,51.3,54.7,50.1,45.2,81,62,37,30.08,29.97,12,2,12,0.00
2013-10-2,79.6,68.2,59.4,49.8,44.2,35.6,66,43,31,30.06,29.96,13,4,13,0.00
2013-10-3,73.3,64.5,56.5,37.5,34.9,31.6,47,34,23,30.13,30.02,30,11,30,0.00
2013-10-4,80.3,67.7,57.8,35.9,32.7,28.5,41,29,17,30.19,30.09,22,11,22,0.00
2013-10-5,82.1,69.7,57.6,36.4,30.6,26.8,32,24,16,30.30,30.18,11,4,11,0.00
2013-10-7,83.7,75.7,63.0,44.0,41.1,36.2,41,30,20,30.06,29.90,6,2,7,0.00
2013-10-8,77.0,66.9,58.9,41.0,37.7,32.6,49,35,22,29.97,29.73,21,5,21,0.00
2013-10-9,74.9,66.2,58.1,43.5,37.7,32.8,48,36,26,29.81,29.64,22,7,22,0.00
2013-10-10,73.8,63.3,52.2,48.2,41.8,34.6,71,47,32,30.04,29.81,13,2,14,0.00
2013-10-11,75.1,61.3,47.2,50.9,44.8,39.9,78,57,34,30.14,30.01,6,1,6,0.00
2013-10-12,76.9,62.1,48.6,53.3,45.4,41.1,78,57,31,30.06,29.90,15,2,15,0.00
2013-10-13,74.5,64.1,56.2,47.9,40.3,35.6,67,43,26,30.11,29.96,18,6,18,0.00
2013-10-14,77.4,65.4,56.3,43.5,38.0,34.9,49,38,22,30.20,30.07,14,4,14,0.00
2013-10-15,80.1,74.1,64.6,36.3,32.4,29.6,29,22,18,30.05,30.01,18,7,18,0.00
2013-10-16,78.5,65.0,52.4,43.9,35.8,28.4,47,35,23,30.18,30.04,7,2,7,0.00
2013-10-17,81.4,64.6,52.4,40.1,36.7,32.9,50,37,19,30.16,30.01,9,2,9,0.00
2013-10-18,80.1,63.6,48.2,47.0,39.9,34.3,63,44,24,30.13,30.02,6,1,6,0.00
2013-10-19,82.3,65.3,51.3,46.0,40.5,36.2,58,42,23,30.15,30.04,10,2,10,0.00
2013-10-20,83.2,66.0,51.8,45.4,40.9,36.9,61,42,22,30.08,29.93,8,2,8,0.00
2013-10-21,80.1,64.9,50.4,48.8,45.0,42.0,74,51,29,30.06,29.95,5,1,5,0.00
2013-10-22,83.0,66.0,51.5,48.1,44.5,42.1,77,49,25,30.08,29.95,9,2,9,0.00
2013-10-25,76.0,67.7,57.1,50.7,48.3,43.9,62,51,38,30.23,30.12,8,1,8,0.00
2013-10-26,79.0,61.8,48.1,50.9,43.9,39.6,77,54,28,30.22,30.05,8,1,8,0.00
2013-10-27,73.1,57.4,45.7,50.1,43.3,36.4,73,61,31,30.06,29.73,16,4,16,0.00
2013-10-30,67.0,59.3,51.1,44.1,42.4,40.3,67,54,42,30.18,30.14,5,1,5,0.00
2013-10-31,70.0,56.4,43.7,47.9,41.5,36.2,77,59,37,30.25,30.13,8,1,8,0.00
2013-11-1,73.6,58.6,46.8,49.8,43.0,38.4,78,58,35,30.25,30.08,6,1,6,0.00
2013-11-2,74.2,59.5,45.2,50.5,43.2,32.8,77,57,37,30.08,29.91,14,2,14,0.00
2013-11-3,64.1,58.2,52.6,33.8,28.7,25.7,39,33,25,30.10,29.97,30,11,30,0.00
2013-11-4,68.0,59.4,52.6,31.8,29.4,25.7,40,33,21,30.14,29.96,24,11,24,0.00
2013-11-5,71.5,60.3,52.2,37.4,33.6,29.7,48,37,25,30.29,30.12,17,4,17,0.00
2013-11-6,70.6,58.2,47.0,41.1,37.3,32.5,62,47,31,30.36,30.23,6,1,6,0.00
2013-11-7,73.6,61.6,52.4,45.4,40.3,37.4,64,47,32,30.25,30.10,9,2,9,0.00
2013-11-8,72.9,60.0,48.8,45.5,42.1,38.4,74,53,34,30.15,30.00,6,1,6,0.00
2013-11-9,72.2,59.1,49.0,46.4,43.0,39.5,74,57,37,30.11,30.03,10,2,10,0.00
2013-11-10,70.9,57.4,47.2,47.3,42.7,37.2,75,59,40,30.17,30.09,7,1,7,0.00
2013-11-11,68.6,56.0,44.3,46.4,41.8,36.2,76,60,43,30.24,30.14,7,1,7,0.00
2013-11-12,71.1,60.1,52.4,46.4,43.2,38.2,70,55,38,30.33,30.19,10,2,10,0.00
2013-11-13,78.1,60.1,45.7,48.4,42.6,37.1,74,54,34,30.30,30.10,12,2,12,0.00
2013-11-14,65.5,54.6,48.6,50.1,45.4,42.1,84,72,57,30.14,29.89,6,1,6,0.00
2013-11-15,67.5,55.8,45.9,44.7,34.4,28.1,85,48,25,29.90,29.76,21,4,21,0.00
2013-11-16,63.7,52.3,42.5,44.3,39.2,31.1,81,62,42,29.97,29.79,6,2,6,0.00
2013-11-17,63.4,51.6,41.0,47.6,41.5,35.1,82,69,54,30.14,29.97,8,1,8,0.00
2013-11-18,62.3,51.7,41.8,48.3,41.9,36.0,85,70,52,30.20,30.11,8,2,8,0.00
2013-11-19,61.0,55.2,51.1,53.3,49.8,43.3,90,82,72,30.15,30.00,10,3,10,0.01
2013-11-20,58.9,56.2,54.4,56.3,53.4,50.7,92,91,89,30.01,29.89,12,4,12,0.48
2013-11-21,58.7,52.9,49.3,50.4,32.3,21.9,87,47,30,30.10,29.95,28,12,28,0.00
2013-11-22,68.8,56.5,48.1,27.7,22.8,18.3,38,28,17,30.12,29.99,24,10,24,0.00
2013-11-23,62.5,51.3,41.8,39.6,33.5,24.0,78,53,25,30.17,30.05,8,2,8,0.00
2013-11-24,60.1,48.6,40.0,44.7,39.4,34.6,85,71,56,30.32,30.17,6,1,6,0.00
2013-11-25,60.8,48.7,40.0,43.6,38.5,34.3,83,69,52,30.41,30.31,8,2,8,0.00
2013-11-26,61.4,50.1,41.4,38.9,36.2,32.9,77,60,42,30.34,30.12,9,2,9,0.00
2013-11-27,62.5,52.0,43.6,42.5,38.4,34.3,74,60,47,30.12,29.92,11,2,11,0.00
2013-11-28,68.4,56.0,47.0,42.9,39.6,37.0,72,56,35,30.04,29.94,11,3,11,0.00
2013-12-1,65.2,56.1,45.4,47.0,43.0,37.5,74,62,50,30.33,30.28,3,0,3,0.00
2013-12-2,65.7,53.1,41.4,51.5,44.1,37.2,86,72,54,30.28,29.94,12,2,12,0.00
2013-12-3,58.5,52.2,43.2,49.3,30.4,17.0,79,46,22,30.00,29.84,22,7,22,0.00
2013-12-4,48.6,40.9,33.5,23.0,15.2,10.7,50,36,23,30.15,29.99,22,6,22,0.00
2013-12-5,48.6,39.5,30.8,18.1,14.4,11.7,50,36,26,30.23,30.13,15,4,15,0.00
2013-12-6,45.0,37.7,27.4,37.1,26.2,14.2,86,64,48,30.27,29.96,19,4,19,0.37
2013-12-7,45.7,38.6,31.9,37.4,30.8,25.7,89,75,48,30.31,29.95,15,2,15,0.00
2013-12-8,42.5,35.1,30.2,27.0,21.8,17.8,83,59,38,30.41,30.30,14,5,14,0.00
2013-12-9,46.8,39.2,31.0,23.5,20.1,16.1,66,47,30,30.51,30.42,13,2,13,0.00
2013-12-10,50.9,39.1,29.3,28.2,24.5,20.1,72,57,37,30.51,30.27,11,2,11,0.00
2013-12-11,54.2,40.6,30.8,33.3,27.9,23.8,76,62,40,30.35,30.26,8,1,8,0.00
2013-12-12,57.2,42.5,31.9,35.2,29.7,24.6,78,62,39,30.35,30.23,8,1,8,0.00
2013-12-13,61.6,45.0,33.5,34.4,30.5,27.1,80,59,31,30.40,30.29,11,2,11,0.00
2013-12-14,57.6,44.0,33.8,38.8,32.6,27.4,81,65,46,30.50,30.37,5,1,5,0.00
2013-12-15,60.8,46.4,37.3,39.3,34.1,29.6,80,64,41,30.45,30.31,8,2,8,0.00
2013-12-16,61.0,47.4,35.8,42.3,34.5,28.8,79,63,39,30.33,30.20,5,1,5,0.00
2013-12-17,61.2,52.2,42.3,40.9,37.6,33.2,71,58,45,30.26,30.09,6,1,6,0.00
2013-12-18,61.2,48.7,39.2,40.0,35.9,31.2,76,62,41,30.10,29.76,8,1,8,0.00
2013-12-19,58.0,49.4,39.2,38.2,27.3,15.8,80,46,26,29.99,29.74,30,10,30,0.00
2013-12-20,63.0,50.5,43.2,25.5,16.4,8.6,49,27,12,30.07,29.98,21,7,21,0.00
2013-12-21,61.7,46.5,35.3,36.5,29.2,24.3,74,52,31,30.16,30.02,9,2,9,0.00
2013-12-22,59.9,46.6,35.5,38.9,32.5,26.3,77,59,42,30.36,30.16,6,1,6,0.00
2013-12-23,61.0,48.2,36.7,40.6,35.3,29.2,79,62,45,30.49,30.35,6,1,6,0.00
2013-12-24,66.1,50.8,39.4,43.7,37.2,31.4,77,61,43,30.39,30.26,14,2,14,0.00
2013-12-26,45.0,42.2,40.1,30.3,28.3,26.7,60,58,56,30.30,30.27,3,0,3,0.00
2013-12-27,58.3,45.5,36.0,36.4,30.2,25.3,73,56,41,30.32,30.18,8,2,8,0.00
2013-12-28,68.0,52.2,35.6,32.8,27.3,20.3,68,42,24,30.20,30.07,19,7,19,0.00
2013-12-29,60.8,50.7,38.9,35.6,28.5,19.8,61,44,25,30.27,30.14,15,2,15,0.00
2013-12-30,61.6,47.6,36.0,37.5,30.9,24.2,66,53,36,30.33,30.25,9,1,9,0.00
2013-12-31,63.7,49.1,39.6,34.1,29.4,22.3,63,48,29,30.34,30.21,10,2,10,0.00
2014-1-1,60.7,46.6,35.1,36.2,30.0,21.8,69,53,38,30.28,30.18,5,1,5,0.00
2014-1-2,66.2,50.8,40.9,38.3,32.9,29.6,68,52,32,30.26,30.11,9,2,9,0.00